Location: Almen
(52.1581°N, 6.3017°E)
Time: 06:35:07
(UTC+00:00)

Daily predictions for brighter satellites

Satellite Brightness Start Highest point End
(mag) Time Altitude Azimuth Time Altitude Azimuth Time Altitude Azimuth
NOSS 3-4 (A) 4.0 20:17:37 10° NW 20:24:14 73° SW 20:32:06 10° SSE
NOSS 3-4 (C) 4.0 20:17:39 10° NW 20:24:18 73° SW 20:32:07 10° SSE
Cosmos 1634 Rocket 4.5 20:21:01 10° NNW 20:27:08 64° W 20:33:11 10° S
SPOT 3 Rocket 3.8 20:24:35 10° SSE 20:29:41 60° ENE 20:34:50 10° N
Cosmos 1943 Rocket 4.2 20:24:58 10° WSW 20:30:01 34° NW 20:35:08 10° NNE
Sich 1 Rocket 3.8 20:27:50 10° N 20:32:24 65° ENE 20:36:55 10° SSE
Spot 2 Rocket 3.6 20:28:49 10° SSE 20:33:55 87° WSW 20:39:03 10° NNW
Cosmos 1818 3.7 20:31:40 10° NW 20:37:07 74° SW 20:42:32 10° SSE
Cosmos 1486 Rocket 4.2 20:32:11 10° SSW 20:37:28 84° WNW 20:42:49 10° NNE
ATLAS 5 CENTAUR R/B 4.1 20:35:59 10° WNW 20:38:26 18° NNW 20:41:08 10° NNE
IRS-1C Rocket 4.1 20:33:26 10° SSE 20:38:41 79° ENE 20:43:58 10° NNW
Cosmos 1833 4.3 20:32:59 10° NNW 20:38:44 84° ENE 20:44:23 10° SSE
Cosmos 1674 Rocket 3.6 20:35:21 10° S 20:39:44 69° E 20:44:10 10° NNE
Cosmos 1538 Rocket 4.5 20:37:06 10° NNW 20:42:22 53° ENE 20:47:37 10° SE
Cosmos 2279 Rocket 4.3 20:37:44 10° NNW 20:43:57 69° W 20:50:09 10° S
ERS-1 Rocket 4.0 20:40:38 10° S 20:45:24 44° W 20:50:12 10° NNW
USA 245 3.5 20:42:06 10° S 20:46:11 66° WSW 20:49:28 10° NNW
Meteor 1-21 Rocket 4.2 20:44:06 10° S 20:49:45 87° E 20:55:22 10° NNE
Cosmos 2297 3.7 20:44:10 10° SSW 20:49:48 79° ESE 20:55:31 10° NNE
Cosmos 1812 2.5 20:47:42 10° N 20:50:48 51° ENE 20:53:43 11° SSE
PSLV R/B 3.6 20:49:20 11° SSE 20:52:17 49° ENE 20:55:20 10° N
Okean-O 3.9 20:48:31 10° SSW 20:52:37 39° W 20:56:46 10° NNW
Meteor 1-11 4.4 20:48:05 10° S 20:53:48 60° E 20:59:29 10° NNE
Cosmos 1378 Rocket 4.0 20:51:31 10° SSW 20:55:47 65° WNW 21:00:03 10° N
Meteor 2-1 Rocket 4.4 20:50:01 10° N 20:55:55 73° ENE 21:01:37 10° SSE
Cosmos 1656 Rocket 4.2 20:50:31 10° SW 20:56:01 63° NW 21:01:28 10° NNE
ATLAS 2AS CENTAUR R/B 4.4 20:50:04 10° NW 20:56:11 32° N 21:02:11 10° ENE
BlueWalker 3 1.9 20:54:28 10° W 20:58:09 77° N 21:01:50 10° E
Meteor 2-12 Rocket 4.5 20:52:23 10° S 20:58:31 78° E 21:04:40 10° NNE
Okean O Rocket 3.5 20:55:45 10° SSW 20:59:28 27° W 21:03:14 10° NW
Cosmos 990 Rocket 4.1 20:55:11 10° S 21:00:13 56° ESE 21:05:20 10° NNE
Cosmos 1025 Rocket 3.0 20:55:57 10° S 21:00:16 71° E 21:04:38 10° NNE
RESURS DK-1 3.7 21:09:54 10° NNW 21:13:28 30° NE 21:17:00 10° ESE
DNEPR-1 R/B 3.5 21:16:45 10° NW 21:21:01 87° NE 21:24:32 15° SE
USA 215 3.7 21:15:18 10° E 21:21:46 64° N 21:28:14 10° WNW
Cosmos 2369 Rocket 2.7 21:19:26 10° SW 21:25:07 66° NW 21:30:47 10° NNE
Cosmos 1400 Rocket 4.3 21:22:34 10° N 21:25:45 24° ENE 21:28:20 13° ESE
ASTEX 1 3.8 21:21:13 10° N 21:26:03 65° W 21:30:50 10° SSW
Meteor 1-27 4.4 21:23:21 10° N 21:29:07 65° ENE 21:33:45 16° SSE
Cosmos 1354 Rocket 4.4 21:24:01 10° SW 21:29:13 68° WNW 21:34:27 10° NNE
Cosmos 2297 Rocket 3.1 21:28:56 10° NNW 21:34:20 42° NE 21:39:27 11° ESE
ISS -3.7 21:32:05 10° W 21:35:23 57° SSW 21:37:41 18° ESE
COBE Rocket 3.7 21:31:17 10° NNE 21:35:59 82° ESE 21:40:35 10° S
Cosmos 1937 Rocket 4.2 21:34:19 16° SSE 21:37:48 35° ESE 21:42:26 10° NE
Ariane Rocket 3.8 21:33:12 10° S 21:38:03 45° W 21:42:54 10° NNW
Cosmos 1680 Rocket 4.0 21:33:11 10° NNW 21:38:21 52° ENE 21:42:31 16° SE
Cosmos 2098 Rocket 2.7 21:35:28 10° N 21:38:35 53° ENE 21:40:46 20° SSE
CZ-4C R/B 1.8 21:42:24 10° SW 21:46:50 77° SE 21:52:34 10° NE
ALOS 2 4.2 21:44:36 12° ESE 21:47:50 25° ENE 21:51:26 10° N
Cosmos 1627 Rocket 4.4 21:42:35 11° S 21:48:26 79° E 21:54:34 10° NNE
Cosmos 923 Rocket 4.0 21:44:33 10° NNW 21:49:47 79° ENE 21:53:32 19° SSE
Cosmos 1515 3.9 21:47:27 10° NNW 21:49:52 35° W 21:51:23 18° SSW
Lacrosse 5 rocket 2.4 21:47:23 10° WNW 21:51:09 43° N 21:54:56 10° E
Cosmos 44 3.0 21:47:34 10° SW 21:51:53 88° NW 21:56:23 10° NE
Cosmos 1975 Rocket 3.0 21:53:28 16° S 21:56:57 86° E 22:01:17 10° NNE
MetOp-A 4.0 21:55:24 19° SE 21:57:40 41° ENE 22:01:16 10° N
Cosmos 2228 2.9 21:56:13 10° N 22:00:27 88° W 22:03:10 22° S
Cosmos 1455 Rocket 4.1 21:59:32 10° NNW 22:03:33 38° W 22:07:03 13° SSW
Cosmos 2227 Rocket 3.3 22:01:44 10° NNW 22:07:02 38° NE 22:12:17 10° ESE
Cosmos 2285 Rocket 4.3 22:02:26 10° SSW 22:08:50 74° WNW 22:15:18 10° NNE
Meteor 2-20 4.5 22:03:14 10° N 22:09:26 89° W 22:13:55 20° S
Cosmos 1867 3.6 22:04:06 10° SSW 22:09:29 66° SE 22:14:55 10° NE
Gbstr 26 Del rocket 3.7 22:04:23 10° W 22:09:31 65° SSW 22:15:20 12° ESE
BREEZE M DEB (TANK) 3.5 22:07:56 10° SW 22:10:08 24° SSW 22:10:08 24° SSW
Cosmos 494 Rocket 4.4 22:05:52 10° NNW 22:11:02 57° ENE 22:14:40 19° SE
BREEZE-M DEB (TANK) 3.0 22:08:23 10° W 22:16:43 65° S 22:19:41 10° E
Cosmos 2026 Rocket 4.3 22:12:22 10° SSW 22:18:24 65° WNW 22:24:26 10° N
CZ-2C R/B 4.0 22:16:18 10° NNE 22:20:58 56° E 22:23:39 24° S
Cosmos 1898 Rocket 3.5 22:16:18 10° SSW 22:21:26 84° WNW 22:26:44 10° NNE
ATLAS 5 CENTAUR R/B 4.2 22:19:53 10° NNW 22:22:33 18° NNE 22:25:34 10° ENE
Spot 4 4.0 22:21:20 23° SSE 22:24:19 65° ENE 22:29:06 10° N
Landsat 5 4.1 22:25:05 10° NNE 22:28:35 34° E 22:29:50 27° SE
Cosmos 1553 Rocket 4.1 22:25:13 10° NNW 22:31:28 73° W 22:35:55 21° S
ARIANE 5 R/B 2.6 22:30:39 26° S 22:33:09 83° WSW 22:37:36 10° NNW
BlueWalker 3 2.0 22:32:14 10° WNW 22:35:47 48° SSW 22:36:56 34° SSE
SL-08 ROCKET BODY 4.3 22:36:29 22° S 22:40:29 79° E 22:46:23 10° NNE
CZ-4C R/B 3.2 22:41:03 10° NNE 22:44:41 79° WNW 22:46:38 27° SSW
Cosmos 1933 4.2 22:42:17 10° N 22:45:56 37° ENE 22:47:44 23° SE
ATLAS 2AS CENTAUR R/B 3.3 22:41:46 10° NW 22:48:29 54° NNE 22:55:03 10° ESE
SOZ 3.9 22:47:59 10° W 22:50:08 82° S 22:50:39 47° ESE
Cosmos 1536 Rocket 3.5 22:48:20 28° S 22:50:38 84° ESE 22:55:04 10° NNE
Cosmos 1417 Rocket 4.4 22:44:37 10° N 22:50:48 86° W 22:54:39 24° S
RESURS DK-1 3.0 22:47:17 10° NW 22:51:02 40° WSW 22:52:29 28° SSW
Cosmos 1656 3.6 22:47:10 18° SSW 22:51:27 82° ESE 22:57:00 10° NNE
S3M 4.0 22:46:05 10° N 22:52:27 86° E 22:56:23 24° SSE
Cosmos 2263 Rocket 3.2 22:49:13 10° NNW 22:54:36 43° NE 22:59:46 11° ESE
Cosmos 1606 Rocket 3.5 22:52:21 10° N 22:56:45 82° E 22:58:50 31° SSE
Cosmos 1400 Rocket 3.8 22:57:54 10° NNW 23:01:24 35° W 23:03:02 23° SW
Cosmos 2058 2.7 23:01:15 32° S 23:03:00 89° W 23:06:58 10° N
USA 215 3.2 22:58:10 10° ESE 23:04:44 78° SSW 23:11:19 10° WNW
Cosmos 1782 2.9 23:04:29 10° NNW 23:08:07 57° W 23:09:26 34° SSW
Cosmos 1602 3.7 23:07:46 39° SE 23:08:26 47° E 23:11:32 10° NNE
ISS -1.7 23:09:15 10° W 23:10:32 16° WSW 23:10:32 16° WSW
Cosmos 1655 Rocket 4.2 23:09:38 25° SSE 23:13:28 62° E 23:19:44 10° NNE
Cosmos 2297 Rocket 2.8 23:13:05 10° NW 23:18:26 45° WSW 23:21:13 26° SSW
Cosmos 1862 3.0 23:18:17 40° S 23:19:30 76° E 23:23:10 10° NNE
Cosmos 2219 3.9 23:14:11 10° NNW 23:19:46 52° NE 23:24:44 13° SE
Cosmos 1726 Rocket 3.7 23:15:21 10° NNW 23:19:58 81° W 23:22:11 31° S
Cosmos 2058 Rocket 3.4 23:17:20 10° N 23:21:45 58° ENE 23:23:59 27° SE
PSLV R/B 3.7 23:17:31 10° NNE 23:22:13 79° ESE 23:24:32 30° S
ALOS 2 3.1 23:22:00 28° SSW 23:23:56 47° W 23:28:12 10° NNW
Lacrosse 5 rocket 1.0 23:24:50 10° WNW 23:28:47 80° SSW 23:31:05 24° SE
Cosmos 1980 Rocket 3.1 23:28:23 24° SSE 23:30:46 33° ESE 23:35:45 10° NE
Cosmos 468 4.5 23:27:02 10° NNW 23:32:24 88° WSW 23:35:26 26° SSE
Cosmos 1356 Rocket 3.3 23:29:39 10° NNW 23:33:42 79° WSW 23:35:17 36° S
Cosmos 1697 Rocket 2.7 23:32:02 26° SSW 23:35:15 70° ESE 23:40:54 10° NE
CZ-4C R/B 3.7 23:31:05 10° W 23:35:41 36° NNW 23:41:32 10° NE
Cosmos 2360 4.4 23:33:07 17° SW 23:37:36 71° NW 23:43:19 10° NNE
Spot 1 4.2 23:34:57 10° NNE 23:39:48 88° E 23:42:05 30° SSW
CZ-2C R/B 3.5 23:36:52 15° SE 23:41:13 46° ENE 23:46:34 10° N
Cosmos 1892 Rocket 3.4 23:39:40 33° S 23:41:33 89° WNW 23:45:54 10° N
PSLV R/B 3.9 23:38:17 10° NNE 23:42:15 67° ESE 23:43:44 36° S
Cosmos 1441 Rocket 2.8 23:44:49 44° S 23:45:49 81° ESE 23:49:17 10° NNE
GEOS 3 Rocket 3.6 23:43:00 10° NE 23:48:17 75° SE 23:51:46 22° SW
Cosmos 1844 Rocket 4.5 23:44:53 10° NNW 23:49:51 30° NE 23:54:46 10° ESE
Meteor 2-3 Rocket 3.8 23:46:44 27° S 23:50:03 82° E 23:55:50 10° NNE
Cosmos 1626 Rocket 4.3 23:49:13 26° SE 23:51:09 42° E 23:55:20 10° NNE
Cosmos 2227 Rocket 2.5 23:45:47 10° NW 23:51:17 52° WSW 23:54:07 27° S
Geosat 4.4 23:50:11 10° NE 23:55:03 49° ESE 23:57:21 28° S
